KKS-1 (KISEKI)

Last updated on Mon Sep 15 2025 00:03:09 GMT+0000 (Coordinated Universal Time)

1 33499U 09002H 25257.22444241 .00001234 00000+0 16279-3 0 9990 2 33499 98.1126 170.5836 0009565 101.6649 258.5638 14.81908455895306
UTC large
Height (km)
Speed (km/s)
/
Latitude / Longitude
Inclination (degrees)
Orbital Period (minutes)
Azimuth
Elevation
Range (km)
Doppler Factor

Next 0 passes for location: London (51.5072 / 0.1276)

Sorry there are no passes over London.